小惑星2008 HE

2008 HE

English version
Home page
Total 6,336 html files since Dec. 4, 1995
Updated on April 26, 2008

---------------------------------------------------------------------

・ プロフィール

発見日 2008年4月18日
発見光度 18.1等
発見者 Catalina Sky Survey

・ 軌道要素

The following orbital elements are taken from MPEC 2008-H25:

Epoch 2008 May 14.0 TT = JDT 2454600.5                  MPC
M  17.99407              (2000.0)            P               Q
n   0.24962840     Peri.  186.30835     +0.76031460     -0.64189034
a   2.4980822      Node   214.28546     +0.60340850     +0.75466621
e   0.9552266      Incl.   10.17276     +0.24045767     +0.13585173
P   3.95           H   17.9           G   0.15           U   9
From 63 observations 2008 Apr. 18-25, mean residual 0".50.

・ 星図

・ 光度変化

        H = 17.9  G = 0.15

---------------------------------------------------------------------

軌道要素はMPCのEphemerides and Orbital Elementsに掲載されたものです。
星図はステラナビゲータ Ver.8 (アストロアーツ) で作成したものです。
光度グラフはComet for Windowsで作成したものです。

---------------------------------------------------------------------

Copyright(C) 1995-2008 Seiichi Yoshida (comet@aerith.net). All rights reserved.